Location: Campobasso
(41.5670°N, 14.6500°E)
Time: 13:47:26
(UTC+01:00)

ISS - Visible Passes

Search period start: 24 January 2019 00:00
Search period end: 03 February 2019 00:00
Orbit: 404 x 410 km, 51.6° (Epoch: 24 January)

Date Brightness Start Highest point End Pass type
(mag) Time Alt. Az. Time Alt. Az. Time Alt. Az.
24 Jan -3.2 17:46:08 10° SSW 17:49:14 41° SE 17:52:03 12° ENE visible
24 Jan -1.6 19:22:55 10° W 19:24:47 24° WNW 19:24:47 24° WNW visible
25 Jan -3.0 18:31:12 10° WSW 18:34:23 44° NNW 18:35:41 28° NNE visible
26 Jan -3.7 17:39:40 10° WSW 17:42:57 77° NNW 17:46:15 10° NE visible
26 Jan -1.4 19:17:26 10° WNW 19:19:13 18° NNW 19:19:13 18° NNW visible
27 Jan -2.1 18:25:31 10° W 18:28:19 25° NNW 18:30:00 17° NNE visible
28 Jan -1.3 19:11:58 10° NW 19:13:26 15° NNW 19:13:26 15° NNW visible
29 Jan -1.6 18:20:01 10° WNW 18:22:19 18° NNW 18:24:07 12° NNE visible
30 Jan -1.3 19:06:12 10° NW 19:07:30 14° N 19:07:30 14° N visible
31 Jan -1.5 18:14:25 10° NW 18:16:22 15° N 18:18:09 11° NNE visible
01 Feb -1.5 18:59:58 10° NNW 19:01:32 15° N 19:01:32 15° N visible
02 Feb -1.6 18:08:27 10° NNW 18:10:23 15° N 18:12:12 10° NE visible
02 Feb -0.6 19:44:46 10° NW 19:44:55 11° NW 19:44:55 11° NW visible
